Cedar Rapids, IA

1:50 AM CST on November 18, 2019 (GMT -0600)
The Eastern Iowa Airport

Weather History for KCID - September, 2019

Change the Weather History Date:

Saturday, September 21, 2019

  Actual Average Record
Temperature  
Mean Temperature 72 °F 61 °F  
Max Temperature 74 °F 73 °F 93 °F (1920)
Min Temperature 70 °F 49 °F 33 °F (1974)
Degree Days  
Heating Degree Days 0 6  
Month to date heating degree days 12 69  
Since 1 July heating degree days 20 88  
Cooling Degree Days 7 2  
Month to date cooling degree days 118 63  
Year to date cooling degree days 770 731  
Growing Degree Days 21 (Base 50)    
Moisture  
Dew Point 70 °F    
Average Humidity 94    
Maximum Humidity 100    
Minimum Humidity 87    
Precipitation  
Precipitation 0.37 in 0.10 in 1.66 in (1950)
Month to date precipitation 3.13 2.30  
Year to date precipitation 30.98 27.60  
Sea Level Pressure  
Sea Level Pressure 29.94 in    
Wind  
Wind Speed 12 mph (South)    
Max Wind Speed 20 mph    
Max Gust Speed 28 mph    
Visibility 7 miles    
Events Rain    
T = Trace of Precipitation, MM = Missing Value Source: NWS Daily Summary

Daily Weather History Graph

Daily Weather History Graph

Search for Another Location

Airport or City:

Astronomy

Sep. 21, 2019 Rise Set
Actual Time 6:53 AM CDT 7:06 PM CDT
Civil Twilight 6:25 AM CDT 7:33 PM CDT
Nautical Twilight 5:52 AM CDT 8:06 PM CDT
Astronomical Twilight 5:19 AM CDT 8:39 PM CDT
Moon 11:38 PM CDT (9/21) 2:05 PM CDT (9/21)
Length of Visible Light 13h 08m
Length of Day
12h 13m
Waning Gibbous, 54% of the Moon is Illuminated
Sep 21
Waning Gibbous
Sep 21
Last Quarter
Sep 28
New
Oct 5
First Quarter
Oct 13
Full

Hourly Weather History & Observations

Time (CDT) Temp. Dew Point Humidity Pressure Visibility Wind Dir Wind Speed Gust Speed Precip Events Conditions
12:52 AM 73.9 °F 69.1 °F 85% 29.96 in 9.0 mi South 9.2 mph - N/A   Mostly Cloudy
1:52 AM 73.0 °F 69.1 °F 87% 29.97 in 10.0 mi South 9.2 mph - N/A   Mostly Cloudy
2:52 AM 73.0 °F 69.1 °F 87% 29.96 in 10.0 mi SSE 11.5 mph - N/A   Overcast
3:52 AM 71.1 °F 69.1 °F 93% 29.96 in 10.0 mi South 9.2 mph - N/A   Scattered Clouds
4:52 AM 71.1 °F 68.0 °F 90% 29.96 in 10.0 mi South 10.4 mph - N/A   Overcast
5:52 AM 71.1 °F 68.0 °F 90% 29.96 in 10.0 mi SSE 9.2 mph - N/A   Overcast
6:52 AM 71.1 °F 69.1 °F 93% 29.95 in 10.0 mi SSE 9.2 mph - N/A   Overcast
7:43 AM 71.1 °F 69.1 °F 93% 29.97 in 1.8 mi South 11.5 mph - 0.05 in Rain Heavy Rain
7:48 AM 69.8 °F 69.8 °F 100% 29.98 in 0.8 mi South 12.7 mph 20.7 mph 0.13 in Rain Heavy Rain
7:52 AM 70.0 °F 70.0 °F 100% 29.96 in 0.8 mi South 9.2 mph 20.7 mph 0.14 in Rain Rain
8:10 AM 70.0 °F 70.0 °F 100% 29.98 in 3.0 mi South 8.1 mph - 0.03 in Rain Light Rain
8:26 AM 70.0 °F 70.0 °F 100% 29.98 in 2.5 mi South 10.4 mph - 0.06 in Rain Rain
8:29 AM 70.0 °F 70.0 °F 100% 29.98 in 5.0 mi South 9.2 mph - 0.06 in Rain Light Rain
8:52 AM 70.0 °F 70.0 °F 100% 29.96 in 7.0 mi South 9.2 mph - 0.06 in   Overcast
8:59 AM 70.0 °F 70.0 °F 100% 29.97 in 7.0 mi South 9.2 mph - N/A   Overcast
9:52 AM 71.1 °F 70.0 °F 96% 29.96 in 8.0 mi South 12.7 mph 23.0 mph N/A   Overcast
10:34 AM 71.1 °F 70.0 °F 96% 29.98 in 9.0 mi South 16.1 mph 23.0 mph N/A   Overcast
10:52 AM 71.1 °F 70.0 °F 96% 29.96 in 4.0 mi SSW 16.1 mph 23.0 mph 0.00 in Rain Light Rain
11:28 AM 71.1 °F 70.0 °F 96% 29.97 in 4.0 mi South 15.0 mph 24.2 mph 0.04 in Rain Rain
11:52 AM 71.1 °F 70.0 °F 96% 29.95 in 2.5 mi SSW 12.7 mph 23.0 mph 0.09 in Rain Rain
12:38 PM 72.0 °F 71.1 °F 97% 29.95 in 8.0 mi South 15.0 mph 26.5 mph 0.03 in Rain Light Rain
12:52 PM 72.0 °F 71.1 °F 97% 29.93 in 8.0 mi South 15.0 mph - 0.03 in   Overcast
1:52 PM 72.0 °F 71.1 °F 97% 29.93 in 6.0 mi South 11.5 mph 21.9 mph 0.00 in   Overcast
2:05 PM 72.0 °F 72.0 °F 100% 29.95 in 5.0 mi South 10.4 mph 23.0 mph 0.01 in Rain Light Rain
2:41 PM 72.0 °F 72.0 °F 100% 29.94 in 6.0 mi South 11.5 mph - 0.01 in Rain Light Rain
2:52 PM 72.0 °F 72.0 °F 100% 29.91 in 4.0 mi South 11.5 mph 19.6 mph 0.02 in Rain Light Rain
3:52 PM 73.0 °F 72.0 °F 96% 29.91 in 6.0 mi South 12.7 mph 20.7 mph 0.02 in   Overcast
4:52 PM 73.0 °F 72.0 °F 96% 29.90 in 8.0 mi South 12.7 mph 23.0 mph 0.01 in   Mostly Cloudy
5:38 PM 73.0 °F 72.0 °F 96% 29.92 in 9.0 mi South 11.5 mph - N/A   Mostly Cloudy
5:52 PM 73.9 °F 72.0 °F 93% 29.91 in 9.0 mi South 13.8 mph - N/A   Mostly Cloudy
6:52 PM 73.9 °F 72.0 °F 93% 29.90 in 9.0 mi South 12.7 mph 24.2 mph N/A   Overcast
7:26 PM 73.4 °F 71.6 °F 94% 29.91 in 10.0 mi South 9.2 mph - N/A   Overcast
7:48 PM 71.6 °F 71.6 °F 100% 29.91 in 9.0 mi South 9.2 mph - N/A   Scattered Clouds
7:52 PM 72.0 °F 71.1 °F 97% 29.90 in 9.0 mi South 9.2 mph - N/A   Scattered Clouds
8:22 PM 72.0 °F 71.1 °F 97% 29.92 in 9.0 mi South 12.7 mph 21.9 mph N/A   Mostly Cloudy
8:39 PM 73.0 °F 71.1 °F 93% 29.92 in 9.0 mi South 12.7 mph 20.7 mph N/A   Scattered Clouds
8:52 PM 73.0 °F 71.1 °F 93% 29.91 in 9.0 mi South 15.0 mph - N/A   Partly Cloudy
9:52 PM 72.0 °F 71.1 °F 97% 29.92 in 10.0 mi South 12.7 mph - N/A   Overcast
10:30 PM 72.0 °F 71.1 °F 97% 29.92 in 9.0 mi South 12.7 mph 21.9 mph N/A   Overcast
10:52 PM 71.1 °F 70.0 °F 96% 29.91 in 8.0 mi South 11.5 mph - N/A   Mostly Cloudy
11:52 PM 71.1 °F 70.0 °F 96% 29.91 in 9.0 mi South 8.1 mph - N/A   Overcast